Weather History for Fort Campbell, KY

Change the Weather History Date:

Wednesday, March 6, 2013

  Actual Average Record
Temperature  
Mean Temperature 34 °F -  
Max Temperature 38 °F 52 °F 71 °F (2012)
Min Temperature 29 °F 32 °F 24 °F (2001)
Degree Days  
Heating Degree Days 32    
Moisture  
Dew Point 26 °F    
Average Humidity 72    
Maximum Humidity 88    
Minimum Humidity 62    
Precipitation  
Precipitation 0.00 in - - ()
Sea Level Pressure  
Sea Level Pressure 30.18 in    
Wind  
Wind Speed 16 mph (NW)    
Max Wind Speed 22 mph    
Max Gust Speed 32 mph    
Visibility 10 miles    
Events Rain    
Averages and records for this station are not official NWS values.
T = Trace of Precipitation, MM = Missing Value Source: NWS Daily Summary

Daily Weather History Graph

Daily Weather History Graph

Search for Another Location

Airport:

Trip Planner

Search our weather history database for the weather conditions in past years. The results will help you decide how hot, cold, wet, or windy it might be!

Date:

Astronomy

Mar. 06, 2013 Rise Set
Actual Time 6:13 AM CST 5:49 PM CST
Civil Twilight 5:47 AM CST 6:15 PM CST
Nautical Twilight 5:17 AM CST 6:45 PM CST
Astronomical Twilight 4:47 AM CST 7:15 PM CST
Moon 2:15 AM CST (3/6) 12:37 PM CST (3/6)
Length of Visible Light 12h 27m
Length of Day
11h 36m
Waning Crescent, 29% of the Moon is Illuminated
Mar 6
Waning Crescent
Mar 11
New
Mar 19
First Quarter
Mar 27
Full
Apr 2
Last Quarter

Hourly Weather History & Observations

Time (CST) Temp. Windchill Dew Point Humidity Pressure Visibility Wind Dir Wind Speed Gust Speed Precip Events Conditions
12:15 AM 33.8 °F 21.9 °F 24.8 °F 70% 30.03 in 10.0 mi WNW 21.9 mph 29.9 mph N/A   Overcast
12:24 AM 33.8 °F 22.8 °F 26.6 °F 75% 30.03 in 10.0 mi West 18.4 mph 26.5 mph N/A   Light Drizzle
12:29 AM 33.8 °F 23.2 °F 26.6 °F 75% 30.03 in 10.0 mi WNW 17.3 mph 26.5 mph N/A   Light Drizzle
12:33 AM 33.8 °F 23.5 °F 26.6 °F 75% 30.03 in 10.0 mi WNW 16.1 mph 26.5 mph N/A   Light Drizzle
12:46 AM 33.8 °F 23.9 °F 26.6 °F 75% 30.04 in 10.0 mi West 15.0 mph - N/A   Overcast
12:53 AM 33.8 °F 22.5 °F 26.6 °F 75% 30.04 in 10.0 mi West 19.6 mph 27.6 mph N/A Rain Light Rain
12:55 AM 33.1 °F 21.9 °F 25.7 °F 74% 30.04 in 10.0 mi West 18.4 mph 27.6 mph 0.00 in   Light Drizzle
1:11 AM 33.8 °F 23.9 °F 26.6 °F 75% 30.04 in 10.0 mi West 15.0 mph 24.2 mph N/A   Overcast
1:21 AM 33.8 °F 23.2 °F 26.6 °F 75% 30.05 in 10.0 mi WNW 17.3 mph 24.2 mph N/A Rain Light Rain
1:55 AM 33.1 °F 22.6 °F 26.4 °F 77% 30.05 in 10.0 mi WNW 16.1 mph 28.8 mph 0.00 in Rain Light Rain
2:22 AM 33.8 °F 23.2 °F 26.6 °F 75% 30.05 in 10.0 mi WNW 17.3 mph 24.2 mph N/A   Overcast
2:24 AM 33.8 °F 23.5 °F 26.6 °F 75% 30.05 in 10.0 mi West 16.1 mph 24.2 mph N/A   Overcast
2:26 AM 33.8 °F 22.5 °F 26.6 °F 75% 30.05 in 10.0 mi WNW 19.6 mph 25.3 mph N/A Rain Light Rain
2:28 AM 33.8 °F 23.5 °F 26.6 °F 75% 30.05 in 10.0 mi WNW 16.1 mph 25.3 mph N/A Rain Light Rain
2:30 AM 33.8 °F 23.5 °F 26.6 °F 75% 30.05 in 10.0 mi WNW 16.1 mph 25.3 mph N/A Rain Light Rain
2:32 AM 33.8 °F 23.2 °F 26.6 °F 75% 30.05 in 10.0 mi WNW 17.3 mph 25.3 mph N/A Rain Light Rain
2:53 AM 33.8 °F 22.8 °F 26.6 °F 75% 30.05 in 10.0 mi West 18.4 mph 28.8 mph N/A   Overcast
2:55 AM 32.9 °F 21.6 °F 26.6 °F 78% 30.05 in 10.0 mi West 18.4 mph 23.0 mph 0.00 in   Overcast
3:50 AM 33.8 °F 22.8 °F 24.8 °F 70% 30.07 in 10.0 mi WNW 18.4 mph 27.6 mph N/A   Light Drizzle
3:55 AM 33.3 °F 21.5 °F 24.1 °F 69% 30.08 in 10.0 mi WNW 20.7 mph 32.2 mph 0.00 in   Light Drizzle
4:11 AM 33.8 °F 22.5 °F 23.0 °F 65% 30.09 in 10.0 mi WNW 19.6 mph 27.6 mph N/A Rain Light Rain
4:24 AM 33.8 °F 22.2 °F 23.0 °F 65% 30.09 in 10.0 mi WNW 20.7 mph 27.6 mph N/A   Overcast
4:55 AM 33.1 °F 21.2 °F 23.7 °F 68% 30.10 in 10.0 mi WNW 20.7 mph 27.6 mph 0.00 in   Overcast
5:55 AM 32.9 °F 22.4 °F 23.4 °F 68% 30.14 in 10.0 mi WNW 16.1 mph 24.2 mph N/A   Overcast
6:11 AM 33.8 °F 23.5 °F 23.0 °F 65% 30.16 in 10.0 mi WNW 16.1 mph 26.5 mph N/A   Overcast
6:55 AM 32.9 °F 22.8 °F 23.9 °F 69% 30.18 in 10.0 mi WNW 15.0 mph 24.2 mph N/A   Overcast
7:55 AM 33.1 °F 22.2 °F 25.0 °F 72% 30.22 in 10.0 mi NW 17.3 mph 23.0 mph N/A   Overcast
8:55 AM 33.1 °F 23.0 °F 25.7 °F 74% 30.25 in 10.0 mi NW 15.0 mph 27.6 mph N/A   Overcast
9:55 AM 34.7 °F 24.3 °F 27.3 °F 74% 30.27 in 10.0 mi WNW 17.3 mph 24.2 mph N/A   Overcast
10:55 AM 35.8 °F 26.9 °F 27.7 °F 72% 30.28 in 10.0 mi NW 13.8 mph 23.0 mph N/A   Overcast
11:55 AM 37.0 °F 29.3 °F 26.6 °F 66% 30.29 in 10.0 mi NW 11.5 mph - N/A   Overcast
12:55 PM 36.9 °F 29.1 °F 26.2 °F 65% 30.29 in 10.0 mi NW 11.5 mph - N/A   Overcast
1:28 PM 37.4 °F 29.8 °F 26.6 °F 65% 30.29 in 10.0 mi NNW 11.5 mph 20.7 mph N/A   Overcast
1:30 PM 37.4 °F 28.9 °F 26.6 °F 65% 30.29 in 10.0 mi NNW 13.8 mph 20.7 mph N/A   Overcast
1:55 PM 37.0 °F 28.5 °F 26.6 °F 66% 30.29 in 10.0 mi NNW 13.8 mph 20.7 mph N/A   Overcast
2:34 PM 37.4 °F 30.8 °F 26.6 °F 65% 30.30 in 10.0 mi NW 9.2 mph - N/A   Overcast
2:55 PM 37.8 °F 29.8 °F 26.1 °F 63% 30.30 in 10.0 mi NW 12.7 mph - N/A   Mostly Cloudy
3:33 PM 37.4 °F 30.3 °F 26.6 °F 65% 30.30 in 10.0 mi NNW 10.4 mph - N/A   Mostly Cloudy
3:55 PM 38.1 °F 32.9 °F 26.2 °F 62% 30.30 in 10.0 mi NW 6.9 mph - N/A   Overcast
4:29 PM 37.4 °F 30.8 °F 26.6 °F 65% 30.30 in 10.0 mi North 9.2 mph - N/A   Scattered Clouds
4:55 PM 37.2 °F 30.6 °F 26.1 °F 64% 30.31 in 10.0 mi North 9.2 mph - N/A   Partly Cloudy
5:55 PM 35.2 °F 31.2 °F 25.7 °F 68% 30.33 in 10.0 mi North 4.6 mph - N/A   Partly Cloudy
6:55 PM 30.6 °F 24.7 °F 27.3 °F 88% 30.33 in 10.0 mi NNE 5.8 mph - N/A   Clear
7:55 PM 30.7 °F 26.0 °F 26.6 °F 85% 30.33 in 10.0 mi North 4.6 mph - N/A   Clear
8:55 PM 29.8 °F - 26.2 °F 86% 30.33 in 10.0 mi Calm Calm - N/A   Clear
9:51 PM 32.0 °F 25.6 °F 26.6 °F 80% 30.34 in 10.0 mi North 6.9 mph - N/A   Mostly Cloudy
9:55 PM 31.6 °F 24.4 °F 26.4 °F 81% 30.34 in 10.0 mi NNW 8.1 mph - N/A   Mostly Cloudy
10:55 PM 32.5 °F 25.5 °F 25.5 °F 75% 30.32 in 10.0 mi North 8.1 mph - N/A   Overcast
11:55 PM 32.2 °F 25.0 °F 25.9 °F 78% 30.33 in 10.0 mi North 8.1 mph - N/A   Overcast